KW1M Weather Reports


Display with metric or nautical units.
time (UTC)temp
F
wind
direction
speed
MPH
gust
MPH
rain 1hr
in
rain 24hr
in
rain mn
in
humidity
%
barometer
mb
20260508030103 46 50 0.0 0.0 0.00 0.04 0.00 52 1009.2
20260508024618 46 50 0.0 1.0 0.00 0.08 0.00 51 1009.3
20260508023057 46 51 0.0 2.0 0.00 0.08 0.00 51 1009.3
20260508021604 46 91 0.0 1.0 0.00 0.08 0.00 51 1009.1
20260508020057 47 122 0.0 0.0 0.00 0.08 0.00 52 1009.0
20260508014555 48 52 0.0 0.0 0.00 0.17 0.00 51 1008.7
20260508013052 49 187 0.0 3.0 0.00 0.17 0.00 48 1008.4
20260508011559 49 187 0.0 2.0 0.00 0.17 0.00 48 1008.1
20260508010055 49 187 0.0 2.0 0.00 0.17 0.00 47 1008.0
20260508004556 50 50 0.0 0.0 0.00 0.17 0.00 47 1007.9
20260508003051 50 188 0.0 1.0 0.00 0.17 0.00 45 1007.6
20260508001550 51 49 0.0 3.0 0.00 0.17 0.00 43 1007.4
20260508000049 51 187 0.0 3.0 0.00 0.17 0.00 43 1007.3
20260507234549 52 50 0.0 4.0 0.00 0.17 0.00 41 1007.3
20260507233048 53 48 1.0 6.0 0.00 0.17 0.00 40 1007.2
20260507231547 54 187 0.0 6.0 0.00 0.17 0.00 38 1007.1
20260507230105 55 187 1.0 6.0 0.00 0.17 0.00 37 1007.1
20260507224552 55 187 2.0 9.0 0.00 0.17 0.00 36 1006.9
20260507223045 56 188 1.0 8.0 0.00 0.17 0.00 37 1006.8
20260507221546 55 210 2.0 7.0 0.00 0.17 0.00 37 1006.6
20260507220052 57 212 2.0 10.0 0.00 0.17 0.00 36 1006.6
20260507214544 58 218 2.0 13.0 0.00 0.17 0.00 35 1006.6
20260507213044 58 158 1.0 8.0 0.00 0.17 0.00 34 1006.6
20260507211544 59 44 1.0 10.0 0.00 0.17 0.00 33 1006.6
20260507210048 59 187 5.0 12.0 0.00 0.17 0.00 34 1006.6
20260507204540 59 162 4.0 12.0 0.00 0.20 0.00 34 1006.6
20260507203106 59 146 6.0 17.0 0.00 0.20 0.00 33 1006.4
20260507201538 59 47 2.0 11.0 0.00 0.20 0.00 35 1006.5
20260507200037 59 187 1.0 7.0 0.00 0.20 0.00 37 1006.6
20260507194536 59 43 2.0 5.0 0.00 0.23 0.00 35 1006.6
20260507193039 59 186 4.0 13.0 0.00 0.23 0.00 35 1006.8
20260507191537 59 200 3.0 10.0 0.00 0.23 0.00 37 1006.8
20260507190033 57 201 1.0 10.0 0.00 0.23 0.00 38 1007.0
20260507184534 57 201 3.0 10.0 0.00 0.26 0.00 38 1007.3
20260507183034 57 200 1.0 10.0 0.00 0.26 0.00 39 1007.3
20260507181531 58 200 0.0 7.0 0.00 0.26 0.00 37 1007.3
20260507180029 59 201 0.0 5.0 0.00 0.26 0.00 40 1007.5
20260507174537 59 199 1.0 15.0 0.00 0.30 0.00 41 1007.4
20260507173049 58 188 2.0 9.0 0.00 0.30 0.00 43 1007.4
20260507171528 59 188 0.0 7.0 0.00 0.30 0.00 42 1007.6
20260507170025 58 44 3.0 10.0 0.00 0.30 0.00 43 1007.8
20260507164522 58 188 1.0 9.0 0.00 0.30 0.00 46 1007.9
20260507163025 58 187 3.0 11.0 0.00 0.30 0.00 44 1007.9
20260507161519 57 187 0.0 11.0 0.00 0.30 0.00 48 1008.2
20260507160018 57 187 2.0 9.0 0.00 0.30 0.00 48 1008.1
20260507154515 56 186 3.0 9.0 0.00 0.30 0.00 53 1008.3
20260507153013 55 187 2.0 12.0 0.00 0.30 0.00 54 1008.4
20260507151509 54 170 5.0 13.0 0.00 0.30 0.00 63 1008.6
20260507150008 53 188 3.0 10.0 0.00 0.30 0.00 61 1008.7
20260507144506 51 187 4.0 11.0 0.00 0.30 0.00 70 1008.7
20260507143005 53 188 3.0 11.0 0.00 0.30 0.00 69 1008.5
20260507141501 52 187 0.0 5.0 0.00 0.30 0.00 72 1008.7
20260507140107 52 188 0.0 6.0 0.00 0.30 0.00 71 1008.5
20260507134558 52 167 1.0 6.0 0.00 0.30 0.00 76 1008.6
20260507133139 50 187 0.0 6.0 0.00 0.30 0.00 76 1008.8
20260507131551 50 187 0.0 5.0 0.00 0.30 0.00 81 1009.0
20260507130059 49 54 0.0 3.0 0.00 0.30 0.00 82 1008.9
20260507124548 48 52 0.0 4.0 0.00 0.30 0.00 84 1008.9
20260507123047 47 188 0.0 5.0 0.00 0.30 0.00 85 1008.8
20260507121541 46 60 0.0 1.0 0.00 0.30 0.00 88 1008.9
20260507120036 45 147 0.0 2.0 0.00 0.30 0.00 90 1008.9
20260507114534 44 187 0.0 1.0 0.00 0.30 0.00 92 1008.8
20260507113033 43 187 0.0 2.0 0.00 0.30 0.00 93 1008.6
20260507111523 43 187 0.0 0.0 0.00 0.30 0.00 94 1008.7
20260507110019 42 146 0.0 0.0 0.00 0.30 0.00 93 1008.4
20260507104514 42 155 0.0 0.0 0.00 0.30 0.00 93 1008.1
20260507103013 42 183 0.0 1.0 0.00 0.30 0.00 93 1008.0
20260507101511 43 186 0.0 1.0 0.00 0.30 0.00 93 1007.8
20260507100009 43 186 0.0 1.0 0.00 0.30 0.00 93 1008.3
20260507094508 43 56 0.0 0.0 0.00 0.30 0.00 93 1007.9
20260507093008 43 58 0.0 3.0 0.00 0.30 0.00 93 1008.0
20260507091506 43 187 0.0 4.0 0.00 0.30 0.00 94 1008.2
20260507090010 43 53 0.0 0.0 0.00 0.30 0.00 94 1008.3
20260507084502 43 186 0.0 3.0 0.00 0.30 0.00 94 1007.6
20260507083002 43 187 0.0 1.0 0.00 0.30 0.00 94 1007.6
20260507081559 43 188 0.0 2.0 0.00 0.30 0.00 94 1007.6
20260507080059 44 186 0.0 1.0 0.00 0.30 0.00 95 1007.6
20260507074558 44 187 0.0 2.0 0.00 0.30 0.00 95 1007.6
20260507073104 44 187 0.0 2.0 0.00 0.30 0.00 95 1007.2
20260507071554 44 187 0.0 3.0 0.00 0.30 0.00 95 1007.3
20260507070058 44 169 0.0 2.0 0.00 0.30 0.00 95 1006.9
20260507064554 44 56 0.0 2.0 0.00 0.30 0.00 96 1007.0
20260507063048 45 210 0.0 4.0 0.00 0.30 0.00 96 1006.9
20260507061547 45 207 0.0 3.0 0.00 0.30 0.00 96 1007.1
20260507060047 46 210 0.0 4.0 0.00 0.30 0.00 97 1007.1
20260507054543 46 206 0.0 4.0 0.00 0.30 0.00 97 1007.1
20260507053042 46 205 0.0 2.0 0.00 0.30 0.00 97 1007.1
20260507051540 46 205 0.0 4.0 0.00 0.30 0.00 97 1007.1
20260507050040 46 205 0.0 2.0 0.00 0.30 0.00 97 1006.9
20260507044553 46 205 0.0 1.0 0.00 0.30 0.00 97 1006.7
20260507043036 47 205 0.0 2.0 0.00 0.30 0.00 97 1007.0
20260507041533 47 205 0.0 1.0 0.01 0.30 0.00 97 1007.1
20260507040040 47 207 0.0 1.0 0.04 0.30 0.00 97 1007.0
20260507034539 48 208 0.0 2.0 0.06 0.30 0.30 97 1006.7
20260507033041 48 209 0.0 2.0 0.08 0.30 0.30 96 1006.8
20260507031537 48 211 0.0 3.0 0.07 0.28 0.28 96 1006.7